ギブス彗星

390P/Gibbs (2020)

English version
Home page
Updated on June 13, 2020

---------------------------------------------------------------------

・ プロフィール

符号 390P/2019 U1
検出日 2019年10月21日
検出光度 18.4等
検出者 A. Fitzsimmons (Asteroid Terrestrial-Impact Last Alert System (ATLAS) search program)

・ 写真集

・ 軌道要素

Epoch 2020 Mar. 12.0 TT = JDT 2458920.5                                         
T 2020 Mar. 22.23904 TT                                 Bell                    
q   1.6998127            (2000.0)            P               Q                  
n   0.07060993     Peri.  232.33946     +0.88994592     -0.43136446             
a   5.7972965      Node   152.27962     +0.44899927     +0.88562939             
e   0.7067922      Incl.   18.55987     -0.07997450     +0.17200376             
P  14.0                                                                         
From 170 observations 2006 Nov. 16-2019 Oct. 25, mean residual 0".7.            

・ 星図

・ 光度変化

        m1 = 10.0 + 5 logΔ + 15.0 log r

---------------------------------------------------------------------

軌道要素はM.P.E.C. 2019-U163に掲載されたものです。
星図はステラナビゲータ Ver.10 (アストロアーツ) で作成したものです。
光度グラフはComet for Windowsで作成したものです。

---------------------------------------------------------------------

Copyright(C) Seiichi Yoshida (comet@aerith.net). All rights reserved.